• In Deutschland
  • Länderverzeichnis
  • Für 7 Tage
  • Wassertemperatur
  • Satellitenkarten
  • Wetterkarte
  • Widgets
  • user-avatar
    Anmelden

    Stündliche Wetter Ostuni

    Heute, 16 Januar, Dienstag

    Zeit Temperatur Niederschläge Wind Luftdruck Luftfeuchtigkeit
    00:00 +9°C° 0 mm 1 m/S 748 mmHg 81%
    01:00 +9°C° 0 mm 1 m/S 748 mmHg 82%
    02:00 +9°C° 0 mm 1 m/S 748 mmHg 82%
    03:00 +8°C° 0 mm 2 m/S 747 mmHg 82%
    04:00 +7°C° 0 mm 2 m/S 747 mmHg 82%
    05:00 +7°C° 0 mm 3 m/S 747 mmHg 82%
    06:00 +7°C° 0 mm 3 m/S 746 mmHg 81%
    07:00 +6°C° 0 mm 4 m/S 746 mmHg 82%
    08:00 +8°C° 0 mm 5 m/S 746 mmHg 77%
    09:00 +9°C° 0 mm 5 m/S 746 mmHg 72%
    10:00 +11°C° 0 mm 6 m/S 746 mmHg 67%
    11:00 +11°C° 0 mm 6 m/S 745 mmHg 62%
    12:00 +13°C° 0 mm 6 m/S 745 mmHg 58%
    13:00 +14°C° 0 mm 6 m/S 745 mmHg 54%
    14:00 +13°C° 0 mm 6 m/S 744 mmHg 56%
    15:00 +13°C° 0 mm 6 m/S 744 mmHg 57%
    16:00 +13°C° 0 mm 5 m/S 743 mmHg 59%
    17:00 +12°C° 0 mm 5 m/S 743 mmHg 62%
    18:00 +12°C° 0 mm 5 m/S 743 mmHg 65%
    19:00 +10°C° 0 mm 5 m/S 742 mmHg 67%
    20:00 +10°C° 0 mm 5 m/S 742 mmHg 70%
    21:00 +10°C° 0 mm 5 m/S 742 mmHg 73%
    22:00 +9°C° 0 mm 5 m/S 742 mmHg 76%
    23:00 +9°C° 0 mm 5 m/S 742 mmHg 77%

    Morgen, 17 Januar, Mittwoch

    Zeit Temperatur Niederschläge Wind Luftdruck Luftfeuchtigkeit
    00:00 +9°C° 0 mm 5 m/S 741 mmHg 78%
    01:00 +9°C° 0 mm 5 m/S 741 mmHg 79%
    02:00 +9°C° 0 mm 6 m/S 740 mmHg 80%
    03:00 +10°C° 0 mm 6 m/S 740 mmHg 80%
    04:00 +10°C° 0 mm 7 m/S 739 mmHg 80%
    05:00 +10°C° 0 mm 7 m/S 739 mmHg 79%
    06:00 +10°C° 0 mm 7 m/S 739 mmHg 78%
    07:00 +10°C° 0 mm 7 m/S 738 mmHg 76%
    08:00 +11°C° 0 mm 8 m/S 738 mmHg 71%
    09:00 +13°C° 0 mm 9 m/S 738 mmHg 67%
    10:00 +15°C° 0 mm 9 m/S 738 mmHg 62%
    11:00 +14°C° 0 mm 10 m/S 737 mmHg 58%
    12:00 +16°C° 0 mm 10 m/S 736 mmHg 54%
    13:00 +17°C° 0 mm 10 m/S 736 mmHg 50%
    14:00 +16°C° 0,1 mm 10 m/S 736 mmHg 51%
    15:00 +14°C° 0,1 mm 10 m/S 735 mmHg 52%
    16:00 +13°C° 0,1 mm 10 m/S 735 mmHg 53%
    17:00 +12°C° 0,3 mm 11 m/S 736 mmHg 54%
    18:00 +11°C° 0,3 mm 11 m/S 736 mmHg 56%
    19:00 +9°C° 0,3 mm 12 m/S 737 mmHg 58%
    20:00 +8°C° 0,1 mm 13 m/S 737 mmHg 52%
    21:00 +8°C° 0,1 mm 14 m/S 738 mmHg 46%
    22:00 +8°C° 0,1 mm 14 m/S 739 mmHg 40%
    23:00 +6°C° 0,1 mm 14 m/S 740 mmHg 42%

    übermorgen, 18 Januar, Donnerstag

    Zeit Temperatur Niederschläge Wind Luftdruck Luftfeuchtigkeit
    00:00 +5°C° 0,1 mm 13 m/S 741 mmHg 43%
    01:00 +5°C° 0,1 mm 13 m/S 742 mmHg 44%
    02:00 +5°C° 0 mm 12 m/S 743 mmHg 42%
    03:00 +4°C° 0 mm 11 m/S 744 mmHg 40%
    04:00 +5°C° 0 mm 10 m/S 745 mmHg 39%
    05:00 +5°C° 0 mm 9 m/S 745 mmHg 40%
    06:00 +5°C° 0 mm 9 m/S 746 mmHg 41%
    07:00 +5°C° 0 mm 9 m/S 747 mmHg 43%
    08:00 +6°C° 0 mm 8 m/S 747 mmHg 39%
    09:00 +7°C° 0 mm 8 m/S 748 mmHg 36%
    10:00 +9°C° 0 mm 8 m/S 749 mmHg 33%
    11:00 +9°C° 0 mm 7 m/S 748 mmHg 30%
    12:00 +10°C° 0 mm 6 m/S 748 mmHg 27%
    13:00 +12°C° 0 mm 5 m/S 748 mmHg 23%
    14:00 +11°C° 0 mm 4 m/S 748 mmHg 26%
    15:00 +11°C° 0 mm 4 m/S 748 mmHg 28%
    16:00 +10°C° 0 mm 3 m/S 748 mmHg 30%
    17:00 +10°C° 0 mm 4 m/S 748 mmHg 34%
    18:00 +8°C° 0 mm 5 m/S 748 mmHg 39%
    19:00 +8°C° 0 mm 6 m/S 748 mmHg 43%
    20:00 +8°C° 0 mm 6 m/S 748 mmHg 46%
    21:00 +7°C° 0 mm 6 m/S 747 mmHg 50%
    22:00 +7°C° 0 mm 6 m/S 747 mmHg 53%
    23:00 +7°C° 0 mm 6 m/S 747 mmHg 55%

    19 Januar, Freitag

    Zeit Temperatur Niederschläge Wind Luftdruck Luftfeuchtigkeit
    00:00 +7°C° 0 mm 5 m/S 747 mmHg 57%
    01:00 +7°C° 0 mm 5 m/S 746 mmHg 59%
    02:00 +7°C° 0 mm 5 m/S 746 mmHg 63%
    03:00 +7°C° 0 mm 5 m/S 745 mmHg 67%
    04:00 +6°C° 0 mm 5 m/S 745 mmHg 71%
    05:00 +7°C° 0 mm 5 m/S 745 mmHg 73%
    06:00 +7°C° 0 mm 5 m/S 745 mmHg 75%
    07:00 +7°C° 0 mm 5 m/S 745 mmHg 77%
    08:00 +8°C° 0 mm 5 m/S 745 mmHg 73%
    09:00 +9°C° 0 mm 6 m/S 745 mmHg 69%
    10:00 +11°C° 0 mm 6 m/S 744 mmHg 66%
    11:00 +11°C° 0 mm 6 m/S 744 mmHg 63%
    12:00 +13°C° 0 mm 6 m/S 744 mmHg 61%
    13:00 +14°C° 0 mm 6 m/S 743 mmHg 59%
    14:00 +13°C° 0 mm 6 m/S 743 mmHg 61%
    15:00 +13°C° 0 mm 6 m/S 743 mmHg 63%
    16:00 +13°C° 0 mm 6 m/S 742 mmHg 65%
    17:00 +11°C° 0 mm 6 m/S 742 mmHg 69%
    18:00 +10°C° 0 mm 6 m/S 742 mmHg 73%
    19:00 +9°C° 0 mm 7 m/S 742 mmHg 76%
    20:00 +10°C° 0 mm 7 m/S 741 mmHg 76%
    21:00 +10°C° 0 mm 7 m/S 741 mmHg 75%
    22:00 +10°C° 0 mm 7 m/S 741 mmHg 75%
    23:00 +10°C° 0 mm 7 m/S 741 mmHg 74%

    20 Januar, Samstag

    Zeit Temperatur Niederschläge Wind Luftdruck Luftfeuchtigkeit
    00:00 +10°C° 0 mm 7 m/S 740 mmHg 74%
    01:00 +10°C° 0 mm 7 m/S 740 mmHg 73%
    02:00 +10°C° 0 mm 7 m/S 739 mmHg 73%
    03:00 +10°C° 0 mm 7 m/S 739 mmHg 73%
    04:00 +10°C° 0 mm 8 m/S 738 mmHg 73%
    05:00 +10°C° 0 mm 8 m/S 738 mmHg 72%
    06:00 +10°C° 0 mm 8 m/S 738 mmHg 72%
    07:00 +10°C° 0 mm 8 m/S 738 mmHg 72%
    08:00 +11°C° 0,1 mm 8 m/S 737 mmHg 69%
    09:00 +11°C° 0,1 mm 8 m/S 737 mmHg 67%
    10:00 +11°C° 0,1 mm 8 m/S 737 mmHg 65%
    11:00 +12°C° 0,3 mm 8 m/S 737 mmHg 65%
    12:00 +12°C° 0,3 mm 8 m/S 736 mmHg 65%
    13:00 +12°C° 0,3 mm 8 m/S 736 mmHg 64%
    14:00 +11°C° 0,6 mm 7 m/S 735 mmHg 65%
    15:00 +11°C° 0,6 mm 6 m/S 735 mmHg 66%
    16:00 +11°C° 0,6 mm 6 m/S 735 mmHg 67%
    17:00 +10°C° 0,2 mm 5 m/S 735 mmHg 64%
    18:00 +9°C° 0,2 mm 5 m/S 735 mmHg 61%
    19:00 +9°C° 0,2 mm 5 m/S 735 mmHg 58%
    20:00 +8°C° 0 mm 5 m/S 735 mmHg 56%
    21:00 +8°C° 0 mm 5 m/S 735 mmHg 54%
    22:00 +8°C° 0 mm 5 m/S 734 mmHg 51%
    23:00 +7°C° 0 mm 5 m/S 734 mmHg 53%

    21 Januar, Sonntag

    Zeit Temperatur Niederschläge Wind Luftdruck Luftfeuchtigkeit
    00:00 +7°C° 0 mm 5 m/S 733 mmHg 55%
    01:00 +7°C° 0 mm 5 m/S 733 mmHg 58%
    02:00 +7°C° 0,1 mm 6 m/S 732 mmHg 62%
    03:00 +7°C° 0,1 mm 6 m/S 732 mmHg 66%
    04:00 +5°C° 0,1 mm 6 m/S 731 mmHg 70%
    05:00 +5°C° 0,1 mm 7 m/S 731 mmHg 69%
    06:00 +5°C° 0,1 mm 8 m/S 731 mmHg 68%
    07:00 +5°C° 0,1 mm 8 m/S 731 mmHg 68%
    08:00 +6°C° 0,1 mm 9 m/S 731 mmHg 66%
    09:00 +6°C° 0,1 mm 10 m/S 731 mmHg 65%
    10:00 +6°C° 0,1 mm 11 m/S 731 mmHg 64%
    11:00 +7°C° 0,1 mm 11 m/S 731 mmHg 60%
    12:00 +7°C° 0,1 mm 11 m/S 731 mmHg 56%
    13:00 +7°C° 0,1 mm 12 m/S 731 mmHg 52%
    14:00 +7°C° 0 mm 12 m/S 732 mmHg 51%
    15:00 +7°C° 0 mm 12 m/S 732 mmHg 50%
    16:00 +5°C° 0 mm 12 m/S 733 mmHg 49%
    17:00 +5°C° 0 mm 12 m/S 733 mmHg 50%
    18:00 +4°C° 0 mm 12 m/S 734 mmHg 51%
    19:00 +3°C° 0 mm 12 m/S 734 mmHg 52%
    20:00 +3°C° 0 mm 12 m/S 735 mmHg 52%
    21:00 +3°C° 0 mm 13 m/S 735 mmHg 52%
    22:00 +3°C° 0 mm 13 m/S 736 mmHg 52%
    23:00 +1°C° 0 mm 13 m/S 736 mmHg 52%
    Mehr zeigen